2006 HY51

Japanese version
Home page
Total 6,336 html files since Dec. 4, 1995
Updated on December 31, 2006

---------------------------------------------------------------------

* Profile

Designation 2006 HY51
Discovery Date April 26, 2006
Magnitude 18.8 mag
Discoverer Lincoln Laboratory Near-Earth Asteroid Research project

* Orbital Elements

The following orbital elements are taken from MPEC 2006-L37:

Epoch 2006 Mar. 6.0 TT = JDT 2453800.5                  MPC
M 331.22397              (2000.0)            P               Q
n   0.23471837     Peri.  340.46395     +0.88989310     -0.30140010
a   2.6027832      Node    42.44929     +0.45598988     +0.56669844
e   0.9690158      Incl.   30.48608     +0.01278675     +0.76681866
P   4.20           H   17.1           G   0.15           U   6
From 149 observations 2006 Apr. 26-June 7, mean residual 0".39.

* Finding Charts

* Magnitudes Graph

        H = 17.1  G = 0.15

---------------------------------------------------------------------

The orbital elements are published at the MPC Ephemerides and Orbital Elements.
The charts are made with StellaNavigator Ver.2.0 for Windows (AstroArts / ASCII).
The magnitudes graphs are made with Comet for Windows.

---------------------------------------------------------------------

Copyright(C) 1995-2008 Seiichi Yoshida (comet@aerith.net). All rights reserved.